Wind_Speed
15 15 14 15 16 16 15 17 19 20 20 19 19 21 22 23 23 24 24 25 26 27 24 23 22 19 20 22 24 28 31 31 33 33 32 29 28 28 28 29 29 29 29
10 13 13 15 14 16 17 18 20 20 20 20 21 22 23 24 25 25 26 25 27 27 26 24 24 23 23 26 27 29 30 31 31 32 31 28 27 27 27 27 29 28 28
13 9 11 15 14 13 15 17 18 20 20 20 22 23 25 24 25 25 25 26 27 28 26 25 24 24 24 27 29 30 32 32 30 29 26 26 25 25 26 27 28 28 26
7 6 9 13 13 12 15 18 20 21 21 24 24 26 26 26 25 25 25 26 26 28 27 26 25 26 27 28 30 30 30 29 27 26 25 24 22 22 22 24 25 26 26
5 3 7 7 12 12 14 18 21 24 25 26 28 27 28 28 27 26 26 24 27 29 27 25 25 26 29 30 30 30 31 26 24 25 23 22 21 21 22 23 24 26 26
3 3 7 7 8 12 13 15 19 24 26 26 30 31 30 30 29 28 26 24 26 27 27 26 25 28 28 26 26 28 24 24 20 22 21 22 22 22 23 24 24 26 26
4 5 1 8 10 11 10 15 14 16 1 4 16 31 32 29 28 29 29 26 25 26 25 24 27 26 25 24 27 24 18 15 22 25 22 20 19 21 22 23 24 26 26
3 4 6 8 11 14 13 15 20 19 20 20 24 19 30 31 30 31 30 27 26 26 24 21 27 25 25 28 24 17 15 20 23 24 22 21 20 21 23 22 24 26 25
3 4 5 6 11 15 15 15 13 10 27 26 19 30 31 32 33 33 29 27 27 25 22 24 28 28 28 28 21 21 19 25 26 24 22 20 20 22 22 23 23 24 25
1 4 6 9 10 13 16 20 16 12 16 15 18 23 31 28 26 30 29 28 27 23 23 28 28 26 29 26 22 20 21 22 23 24 24 22 20 21 22 22 23 22 23
2 3 8 6 10 10 16 21 19 15 14 9 17 16 27 29 31 23 28 29 27 24 25 28 27 25 27 25 23 25 23 18 24 24 24 21 20 20 21 21 21 21 21
5 5 6 7 9 11 10 10 12 13 16 19 19 24 24 26 29 24 23 27 26 27 25 26 25 25 27 25 26 22 12 20 24 21 24 22 20 20 20 20 20 19 19
10 7 9 10 9 12 14 11 12 10 13 22 26 27 26 31 28 28 22 26 27 27 26 25 26 25 27 28 21 12 10 24 24 23 24 21 19 19 18 19 19 18 18
12 9 8 11 10 10 10 14 14 14 15 22 29 30 30 33 31 34 31 30 29 28 27 28 29 22 25 23 14 9 19 26 26 24 23 20 19 18 18 18 17 18 18
11 16 13 12 14 11 9 9 11 14 17 19 25 30 33 33 36 35 37 33 28 26 25 32 25 27 24 20 11 20 9 27 22 24 24 20 19 17 17 17 17 16 16
12 19 16 15 13 11 9 11 12 14 14 18 24 29 34 32 41 38 36 32 27 30 29 28 20 24 23 17 18 15 15 23 22 20 23 20 18 17 17 16 16 16 15
12 21 20 18 14 11 10 10 10 13 16 15 24 28 33 32 41 38 37 33 28 28 30 21 25 21 21 17 18 14 14 19 19 22 22 22 19 17 17 17 16 16 15
14 20 19 17 13 12 9 9 9 12 14 20 22 27 34 38 47 41 41 31 24 28 25 29 26 22 21 21 18 15 16 13 24 21 22 19 21 19 17 17 17 16 16
13 10 17 15 14 12 11 10 13 15 16 21 27 32 40 40 39 43 39 37 30 30 22 26 24 19 21 22 19 16 17 14 15 19 26 20 18 21 23 21 19 19 18
14 14 20 16 14 12 13 17 18 22 22 27 27 30 37 40 41 39 35 25 22 26 26 23 19 17 18 21 18 14 15 17 17 15 21 22 21 26 21 19 22 21 20
16 15 19 19 16 15 15 20 23 23 27 30 33 29 33 37 38 38 30 20 21 23 26 24 21 17 16 15 13 16 11 13 18 16 16 17 16 21 20 24 23 23 24
16 17 22 20 18 16 18 20 20 27 24 29 31 24 29 41 44 39 35 27 22 27 26 24 24 21 22 23 14 17 3 6 11 15 17 18 20 18 23 19 22 23 23
19 19 21 22 22 20 22 23 22 22 23 21 26 30 32 35 38 30 30 32 29 33 29 27 27 23 19 19 14 8 4 4 10 16 17 16 19 21 21 22 25 23 23
20 21 20 21 22 24 25 27 27 27 26 27 29 28 33 32 31 32 28 33 29 31 26 27 27 29 21 21 21 14 11 7 3 1 14 24 21 22 26 27 26 30 31
23 23 22 23 23 24 27 32 32 26 27 27 26 25 30 27 29 28 36 36 33 28 27 28 26 26 24 27 24 17 19 13 11 5 3 9 19 27 30 30 31 31 31
25 24 24 24 24 25 28 32 32 30 29 27 27 29 29 26 32 35 30 34 33 30 32 28 28 29 28 21 20 20 13 13 12 7 5 8 16 21 26 27 30 31 32
Wind_Direction
107 135 156 159 163 171 184 177 178 176 174 172 167 158 153 149 144 138 132 131 127 125 125 122 126 122 112 114 116 117 113 107 102 102 99 97 97 98 98 99 95 94 92
127 143 162 171 166 176 187 194 185 181 177 177 169 160 152 148 143 139 134 133 130 127 127 127 124 120 117 120 120 116 113 109 109 107 102 97 96 97 100 100 95 93 91
119 149 167 181 176 171 190 198 189 184 179 179 173 165 157 152 149 142 139 137 136 133 130 127 123 121 119 123 117 114 112 111 105 104 103 101 100 98 98 97 97 95 94
131 137 180 185 186 181 188 199 198 190 188 184 181 172 165 156 153 148 145 145 143 135 131 129 128 123 125 126 122 119 113 110 105 105 103 102 98 100 102 100 98 97 96
133 150 218 192 197 190 193 202 201 197 190 193 182 180 169 162 157 154 154 150 143 136 132 132 129 133 132 126 128 124 116 112 109 109 110 108 106 101 101 101 101 101 97
121 121 188 194 203 205 198 206 209 202 194 194 186 179 173 169 166 162 162 155 145 139 135 137 138 139 137 134 136 131 123 118 119 112 109 110 110 104 104 104 104 100 99
138 174 232 198 192 194 201 209 205 197 127 244 212 181 174 173 169 166 163 156 149 143 144 145 142 142 143 140 143 139 132 133 117 110 114 118 117 112 109 108 107 104 104
176 172 191 234 200 184 183 197 198 197 216 283 263 256 178 174 170 166 159 153 152 152 153 150 143 145 146 150 145 132 128 123 117 114 114 120 120 116 112 111 107 106 104
246 193 200 213 203 198 201 203 197 208 225 231 260 214 193 173 169 163 157 155 159 155 155 150 144 144 144 150 139 122 124 119 118 117 117 123 121 116 116 113 109 106 106
289 209 193 199 199 198 186 202 215 203 186 230 255 230 182 161 170 162 160 166 162 158 158 151 151 149 149 149 135 124 121 117 115 121 125 125 121 121 116 113 110 109 108
297 219 183 152 190 200 201 219 225 228 209 243 212 180 168 163 167 170 166 167 161 161 158 156 158 153 153 152 138 135 139 124 124 126 126 128 127 122 117 115 115 115 114
180 216 195 179 171 185 196 210 211 228 222 201 200 225 177 171 158 167 172 166 164 157 158 160 155 153 151 153 151 153 140 133 126 126 132 133 131 128 124 122 121 121 118
172 188 200 175 187 179 169 170 186 181 184 187 190 184 178 174 166 167 175 165 161 158 159 156 151 146 151 153 163 157 140 126 125 129 139 137 134 133 132 129 127 128 125
163 177 187 192 176 185 188 210 205 197 183 173 171 179 176 171 173 170 175 169 161 159 155 154 149 150 149 157 156 176 159 131 136 139 143 145 142 141 138 138 135 135 134
167 175 180 184 182 178 188 201 216 216 213 200 190 189 181 175 175 178 174 163 158 162 158 153 156 156 160 173 157 160 180 137 141 146 150 153 150 147 145 143 144 143 141
170 172 180 177 191 193 194 193 210 225 220 210 202 199 199 197 188 183 175 170 163 162 162 158 165 158 162 173 152 169 141 138 142 148 156 156 161 159 155 153 153 153 155
184 165 173 178 180 184 194 189 199 210 220 212 206 201 203 195 179 179 165 161 163 162 164 171 153 163 158 157 162 169 151 146 145 153 162 165 167 171 168 166 167 166 168
194 171 153 164 182 175 195 209 226 221 222 218 215 197 185 170 170 165 160 162 168 171 172 154 156 160 162 161 161 162 158 153 152 158 162 169 177 179 182 185 182 181 180
178 166 153 165 166 171 174 174 186 182 171 176 181 181 167 164 159 156 159 169 172 167 150 148 157 166 165 155 157 172 163 169 161 164 175 176 180 187 193 197 198 196 197
177 186 157 154 169 164 152 156 152 149 140 139 134 128 135 147 155 157 160 167 164 160 151 153 154 162 161 155 163 176 172 176 178 189 176 181 186 194 200 200 204 208 212
168 162 168 159 175 170 160 145 146 144 138 145 139 139 131 137 147 154 153 163 164 157 151 158 153 156 161 156 169 170 191 181 186 195 195 195 191 194 195 216 213 216 219
167 175 158 164 173 170 171 165 153 158 152 154 161 149 149 155 162 161 166 186 174 173 167 170 167 167 180 189 178 155 154 206 218 204 199 203 209 212 218 214 225 223 226
173 179 171 171 172 172 174 168 152 153 145 148 155 163 168 167 167 170 179 171 183 180 177 177 180 184 188 187 179 179 152 196 178 218 220 212 217 220 225 226 223 227 222
180 180 174 182 175 173 174 165 155 159 161 169 167 171 170 180 180 188 186 185 194 191 184 181 188 190 187 182 204 209 189 168 159 164 217 223 220 223 225 225 227 232 231
178 174 173 174 175 175 174 171 167 168 171 167 171 175 173 189 195 191 188 194 201 188 186 188 194 201 200 187 200 209 219 215 172 191 188 217 227 234 233 233 235 239 237
172 171 170 173 179 180 174 174 174 171 171 170 176 179 188 196 199 196 191 194 194 195 199 195 197 203 207 193 204 214 204 193 198 194 226 212 213 229 238 239 239 241 239
Height
747 747 749 751 755 759 763 766 767 770 773 776 779 780 782 784 788 790 792 794 798 800 805 809 813 815 817 817 819 821 823 827 826 830 833 836 838 841 842 843 844 846 846
746 747 750 752 755 759 762 766 769 772 775 778 781 783 786 787 790 794 795 799 800 804 806 811 813 816 819 820 822 823 826 827 831 833 837 840 842 844 846 846 847 849 850
748 749 751 753 755 759 763 767 771 774 777 779 782 785 788 790 793 796 799 801 804 804 808 812 815 817 821 823 825 828 830 833 835 837 840 843 846 848 849 849 851 851 855
750 751 752 754 757 760 763 767 771 774 777 778 783 785 789 791 795 799 802 803 805 806 810 813 816 818 822 826 828 832 834 837 838 839 844 846 849 852 853 852 855 855 858
749 751 752 755 758 760 763 766 769 772 775 780 780 788 790 792 795 799 803 806 807 808 811 815 818 820 824 829 832 835 837 840 841 842 846 849 852 854 856 857 859 859 861
749 751 752 755 758 760 763 766 769 772 776 780 782 784 790 791 794 798 803 808 810 811 813 816 818 824 825 831 834 837 839 841 844 844 848 852 855 857 858 860 863 862 864
749 751 752 753 755 758 763 766 769 770 774 782 780 780 787 792 794 798 803 807 812 812 815 818 818 825 829 832 836 839 841 842 847 848 850 855 857 860 861 864 864 863 867
748 750 752 753 755 757 760 763 766 766 756 785 787 784 786 789 794 799 804 808 812 813 816 819 821 826 830 834 837 840 841 844 847 850 853 859 861 862 863 867 866 866 868
748 750 751 752 754 757 759 762 763 764 764 778 784 783 791 788 793 799 803 806 812 813 817 822 824 827 831 836 839 840 843 846 848 852 857 862 864 865 867 867 869 870 871
747 749 750 751 754 757 759 760 761 763 768 775 772 769 788 789 795 802 805 809 811 814 819 822 826 830 833 837 841 842 846 849 850 855 859 864 867 868 869 870 870 874 874
747 748 749 750 752 755 757 758 762 764 767 767 772 775 785 790 797 804 807 810 809 814 821 823 828 831 835 840 843 845 847 851 853 855 861 865 868 870 871 872 874 876 877
744 747 749 750 751 754 756 758 761 763 767 769 770 780 786 790 794 803 809 811 814 816 821 825 829 834 836 841 844 846 847 851 851 855 863 866 869 870 871 874 877 880 880
740 745 748 749 750 753 756 759 762 764 765 769 773 778 787 791 796 802 809 812 816 818 822 826 831 836 837 841 846 847 847 850 852 857 864 867 870 872 874 876 877 881 881
738 743 746 747 749 752 754 757 760 763 766 768 774 779 784 790 796 798 806 812 815 819 822 826 832 836 839 842 846 848 849 850 853 859 865 867 871 874 875 878 879 881 882
735 740 744 746 749 751 753 755 758 760 764 768 771 776 780 786 792 799 803 809 815 819 823 826 832 836 840 843 846 848 850 850 853 859 865 868 872 875 877 878 880 882 883
732 736 739 744 747 749 752 754 757 759 763 765 769 773 778 782 788 795 800 808 816 817 822 826 831 836 840 844 845 848 851 851 854 859 865 869 873 876 877 879 881 882 884
729 733 736 740 745 748 750 752 755 758 760 762 765 769 773 777 782 792 797 807 812 818 822 826 831 837 840 844 846 849 851 853 855 859 864 867 872 876 877 878 880 882 883
727 729 734 738 744 747 748 750 752 754 757 760 763 767 768 774 779 788 793 803 811 818 821 824 829 836 840 843 846 849 852 855 856 860 863 866 870 874 877 878 879 881 882
723 728 732 736 742 745 747 750 751 753 755 757 758 761 765 770 778 783 794 802 809 815 819 823 830 835 838 842 846 851 852 855 857 860 862 864 866 870 874 876 876 878 879
722 727 730 735 740 744 746 749 752 755 757 758 759 761 762 769 777 786 792 802 808 813 818 823 827 834 838 841 845 851 853 855 857 860 862 863 864 866 869 871 874 875 876
719 725 729 733 738 742 746 748 752 755 758 762 763 766 768 774 781 787 792 804 809 814 817 823 827 833 837 839 844 848 853 855 856 859 860 861 864 866 868 868 869 871 872
717 723 727 731 736 740 744 747 751 756 760 764 766 768 773 776 783 790 799 806 811 816 819 822 826 832 836 838 839 845 852 855 855 857 858 859 861 863 865 867 866 867 868
715 720 724 729 733 738 742 745 751 758 762 767 770 772 776 780 785 792 799 804 810 814 816 819 824 828 832 834 838 841 847 850 852 854 855 856 858 860 861 862 865 865 866
711 717 721 727 731 735 739 743 748 752 757 763 767 771 775 782 786 791 796 802 807 810 813 814 822 826 828 831 835 837 839 841 847 853 852 852 854 855 856 857 857 859 860
707 713 719 725 729 732 736 740 745 752 757 761 767 772 775 781 786 791 794 799 804 807 808 814 819 823 826 827 831 835 839 839 840 845 848 847 847 847 848 849 850 851 852
701 709 716 722 727 731 734 737 742 747 754 760 765 770 775 780 783 787 791 796 800 804 808 810 815 821 823 825 829 832 834 837 837 839 842 840 840 841 842 842 841 842 842